Location: Bruderhein
(53.8035°N, 112.9265°W)
Time: 01:44:12
(UTC+00:00)

Gurwin Techsat 1B - Pass Details

Date: 16 April 2024
Orbit: 811 x 812 km, 98.9° (Epoch: 20 May)

Event Time Altitude Azimuth Distance (km) Brightness Sun altitude
Rises 10:13:54 0° 22° (NNE) 3,350 13.2 -17.2°
Reaches altitude 10° 10:16:36 10° 35° (NE) 2,413 12.4 -16.9°
Maximum altitude 10:21:08 28° 93° (E) 1,499 10.4 -16.5°
Drops below altitude 10° 10:25:38 10° 151° (SSE) 2,398 10.9 -16.0°
Sets 10:28:18 0° 163° (SSE) 3,324 11.5 -15.7°
